Hourly Data Report for September 12, 2017

All times are specified in Local Standard Time (LST). Add 1 hour to adjust for Daylight Saving Time where and when it is observed.

BATHURST A
NEW BRUNSWICK

47°37'47.000" N
65°44'20.000" W
58.80 m
8100505
71574
ZBF

Download Data

Hourly Data (September 2017)
Hourly Data Report for September 12, 2017
Temp Definition
°C
Dew Point Temp Definition
°C
Rel Hum Definition
%
Wind Dir Definition
10's deg

Wind Spd Definition
km/h
Visibility Definition
km
Stn Press Definition
kPa
Hmdx Definition


Wind Chill Definition


Weather Definition


TIME
00:00 Legend Double Dagger 10.2 9.4 95 25 8 24.1 100.86     LegendNANA
01:00 Legend Double Dagger 9.5 9.0 97 23 3 24.1 100.80     LegendNANA
02:00 Legend Double Dagger 8.4 8.0 97 21 5 19.3 100.78     Clear
03:00 Legend Double Dagger 8.3 8.0 98 36 2 24.1 100.69     LegendNANA
04:00 Legend Double Dagger 7.1 6.8 98 26 4 16.1 100.62     LegendNANA
05:00 Legend Double Dagger 6.7 6.4 98 36 1 19.3 100.59     Clear
06:00 Legend Double Dagger 5.9 5.6 98 26 4 12.9 100.55     LegendNANA
07:00 Legend Double Dagger 7.6 7.2 98 0 1 12.9 100.53     LegendNANA
08:00 Legend Double Dagger 10.5 9.4 93 0 1 12.9 100.47     Mainly Clear
09:00 Legend Double Dagger 13.8 11.7 87 12 4 12.9 100.44     LegendNANA
10:00 Legend Double Dagger 15.3 11.8 79 9 4 16.1 100.39     LegendNANA
11:00 Legend Double Dagger 15.5 11.9 79 10 13 16.1 100.27     Mostly Cloudy
12:00 Legend Double Dagger 18.0 12.9 72 8 7 16.1 100.17     LegendNANA
13:00 Legend Double Dagger 20.3 13.9 66 13 7 19.3 100.09     LegendNANA
14:00 Legend Double Dagger 18.3 13.1 71 6 10 16.1 100.05     Cloudy
15:00 Legend Double Dagger 18.2 12.5 69 4 12 24.1 99.97     LegendNANA
16:00 Legend Double Dagger 17.5 13.0 75 9 5 12.9 99.91     LegendNANA
17:00 Legend Double Dagger 17.9 12.5 70 7 5 19.3 99.90     Cloudy
18:00 Legend Double Dagger 17.4 13.8 79 36 1 16.1 99.87     LegendNANA
19:00 Legend Double Dagger 16.6 14.4 87 24 3 24.1 99.88     LegendNANA
20:00 Legend Double Dagger 15.3 13.7 90 25 6 24.1 99.87     Cloudy
21:00 Legend Double Dagger 13.7 13.1 96 24 3 9.7 99.90     Fog
22:00 Legend Double Dagger 14.6 12.7 89 36 3 11.3 99.89     LegendNANA
23:00 Legend Double Dagger 12.2 11.4 95 28 4 11.3 99.90     Clear

Notes on Data Quality.

Legend

  • E = Estimated
  • M = Missing
  • NA = Not Available
  • ‡ = Partner data that is not subject to review by the National Climate Archives
Date modified: